Weather History for KSKX - May, 2013

Change the Weather History Date:

Friday, May 24, 2013

  Actual Average Record
Temperature  
Mean Temperature 66 °F -  
Max Temperature 80 °F 73 °F 86 °F (2005)
Min Temperature 53 °F 37 °F 28 °F (2002)
Cooling Degree Days 2    
Growing Degree Days 16 (Base 50)    
Moisture  
Dew Point 31 °F    
Average Humidity 33    
Maximum Humidity 67    
Minimum Humidity 10    
Precipitation  
Precipitation 0.00 in - - ()
Sea Level Pressure  
Sea Level Pressure 30.19 in    
Wind  
Wind Speed 14 mph (SSW)    
Max Wind Speed 31 mph    
Max Gust Speed 41 mph    
Visibility 10 miles    
Events      
Averages and records for this station are not official NWS values.
T = Trace of Precipitation, MM = Missing Value Source: NWS Daily Summary

Daily Weather History Graph

Daily Weather History Graph

Search for Another Location

Airport or City:

Trip Planner

Search our weather history database for the weather conditions in past years. The results will help you decide how hot, cold, wet, or windy it might be!

Date:

Astronomy

May. 24, 2013 Rise Set
Actual Time 5:49 AM MDT 8:09 PM MDT
Civil Twilight 5:20 AM MDT 8:39 PM MDT
Nautical Twilight 4:43 AM MDT 9:15 PM MDT
Astronomical Twilight 4:04 AM MDT 9:55 PM MDT
Moon 7:55 PM MDT (5/24) 5:22 AM MDT (5/24)
Length of Visible Light 15h 19m
Length of Day
14h 20m
Full, 100% of the Moon is Illuminated
May 24
Full
May 24
Full
May 31
Last Quarter
Jun 8
New
Jun 16
First Quarter

Hourly Weather History & Observations

Time (MDT) Temp. Dew Point Humidity Pressure Visibility Wind Dir Wind Speed Gust Speed Precip Events Conditions
12:15 AM 60.8 °F 41.0 °F 48% 30.14 in 10.0 mi ESE 16.1 mph 21.9 mph N/A   Clear
12:35 AM 60.8 °F 42.8 °F 52% 30.15 in 10.0 mi ESE 15.0 mph - N/A   Clear
12:55 AM 60.8 °F 42.8 °F 52% 30.15 in 10.0 mi ESE 18.4 mph - N/A   Clear
1:15 AM 60.8 °F 44.6 °F 55% 30.15 in 10.0 mi ESE 15.0 mph - N/A   Clear
1:35 AM 60.8 °F 44.6 °F 55% 30.16 in 10.0 mi ESE 15.0 mph 20.7 mph N/A   Partly Cloudy
1:55 AM 60.8 °F 42.8 °F 52% 30.17 in 10.0 mi SE 10.4 mph - N/A   Scattered Clouds
2:15 AM 60.8 °F 42.8 °F 52% 30.17 in 10.0 mi SE 11.5 mph 16.1 mph N/A   Partly Cloudy
2:35 AM 60.8 °F 42.8 °F 52% 30.17 in 10.0 mi SE 11.5 mph - N/A   Clear
2:55 AM 59.0 °F 42.8 °F 55% 30.18 in 10.0 mi ESE 12.7 mph - N/A   Clear
3:15 AM 59.0 °F 42.8 °F 55% 30.18 in 10.0 mi SE 13.8 mph - N/A   Clear
3:35 AM 57.2 °F 42.8 °F 59% 30.18 in 10.0 mi SE 15.0 mph - N/A   Clear
3:55 AM 57.2 °F 42.8 °F 59% 30.19 in 10.0 mi SE 15.0 mph 21.9 mph N/A   Clear
4:15 AM 57.2 °F 42.8 °F 59% 30.19 in 10.0 mi SE 15.0 mph - N/A   Clear
4:35 AM 57.2 °F 42.8 °F 59% 30.20 in 10.0 mi SE 11.5 mph - N/A   Clear
4:55 AM 55.4 °F 42.8 °F 63% 30.20 in 10.0 mi SE 11.5 mph - N/A   Clear
5:15 AM 55.4 °F 42.8 °F 63% 30.20 in 10.0 mi ESE 11.5 mph - N/A   Clear
5:35 AM 53.6 °F 42.8 °F 67% 30.21 in 10.0 mi ESE 10.4 mph - N/A   Clear
5:55 AM 53.6 °F 42.8 °F 67% 30.21 in 9.0 mi ESE 11.5 mph - N/A   Clear
6:15 AM 53.6 °F 42.8 °F 67% 30.21 in 9.0 mi ESE 10.4 mph - N/A   Clear
6:35 AM 53.6 °F 42.8 °F 67% 30.22 in 10.0 mi ESE 11.5 mph - N/A   Clear
6:55 AM 55.4 °F 42.8 °F 63% 30.23 in 10.0 mi ESE 9.2 mph - N/A   Clear
7:15 AM 57.2 °F 42.8 °F 59% 30.23 in 10.0 mi SE 9.2 mph - N/A   Clear
7:35 AM 59.0 °F 42.8 °F 55% 30.24 in 10.0 mi SE 8.1 mph - N/A   Clear
7:55 AM 60.8 °F 42.8 °F 52% 30.24 in 10.0 mi South 8.1 mph - N/A   Clear
8:15 AM 62.6 °F 41.0 °F 45% 30.25 in 10.0 mi SW 10.4 mph 16.1 mph N/A   Clear
8:35 AM 62.6 °F 41.0 °F 45% 30.25 in 10.0 mi WSW 10.4 mph - N/A   Clear
8:55 AM 62.6 °F 41.0 °F 45% 30.26 in 10.0 mi WSW 10.4 mph - N/A   Clear
9:15 AM 64.4 °F 41.0 °F 42% 30.26 in 10.0 mi SW 13.8 mph 17.3 mph N/A   Clear
9:35 AM 66.2 °F 41.0 °F 40% 30.26 in 10.0 mi SW 13.8 mph 17.3 mph N/A   Clear
9:55 AM 66.2 °F 39.2 °F 37% 30.26 in 10.0 mi SW 12.7 mph - N/A   Clear
10:15 AM 68.0 °F 39.2 °F 35% 30.26 in 10.0 mi SW 11.5 mph 16.1 mph N/A   Clear
10:35 AM 69.8 °F 35.6 °F 28% 30.25 in 10.0 mi WSW 10.4 mph 16.1 mph N/A   Clear
10:55 AM 69.8 °F 35.6 °F 28% 30.25 in 10.0 mi SSW 11.5 mph 16.1 mph N/A   Clear
11:15 AM 71.6 °F 35.6 °F 27% 30.25 in 10.0 mi SW 9.2 mph - N/A   Clear
11:35 AM 73.4 °F 33.8 °F 23% 30.24 in 10.0 mi SW 12.7 mph 23.0 mph N/A   Clear
11:55 AM 73.4 °F 33.8 °F 23% 30.24 in 10.0 mi WSW 6.9 mph - N/A   Clear
12:15 PM 73.4 °F 33.8 °F 23% 30.23 in 10.0 mi SW 8.1 mph 20.7 mph N/A   Clear
12:35 PM 75.2 °F 32.0 °F 21% 30.23 in 10.0 mi WSW 6.9 mph 26.5 mph N/A   Clear
12:55 PM 75.2 °F 28.4 °F 18% 30.21 in 10.0 mi WSW 12.7 mph 28.8 mph N/A   Clear
1:15 PM 78.8 °F 24.8 °F 14% 30.21 in 10.0 mi SW 19.6 mph 32.2 mph N/A   Clear
1:35 PM 78.8 °F 23.0 °F 13% 30.20 in 10.0 mi SW 18.4 mph 31.1 mph N/A   Clear
1:55 PM 78.8 °F 21.2 °F 12% 30.20 in 10.0 mi SW 23.0 mph 34.5 mph N/A   Clear
2:15 PM 80.6 °F 21.2 °F 11% 30.18 in 9.0 mi SSW 31.1 mph 38.0 mph N/A   Clear
2:35 PM 80.6 °F 21.2 °F 11% 30.19 in 8.0 mi SSW 20.7 mph 36.8 mph N/A   Clear
2:55 PM 80.6 °F 21.2 °F 11% 30.18 in 7.0 mi SW 28.8 mph 40.3 mph N/A   Clear
3:15 PM 80.6 °F 19.4 °F 10% 30.17 in 8.0 mi SW 28.8 mph 41.4 mph N/A   Clear
3:35 PM 80.6 °F 21.2 °F 11% 30.16 in 10.0 mi SW 27.6 mph 36.8 mph N/A   Clear
3:55 PM 80.6 °F 21.2 °F 11% 30.16 in 9.0 mi SW 26.5 mph 36.8 mph N/A   Clear
4:15 PM 80.6 °F 21.2 °F 11% 30.15 in 10.0 mi SW 24.2 mph 38.0 mph N/A   Clear
4:35 PM 80.6 °F 21.2 °F 11% 30.14 in 10.0 mi WSW 29.9 mph 35.7 mph N/A   Clear
4:55 PM 80.6 °F 19.4 °F 10% 30.14 in 10.0 mi SW 24.2 mph 33.4 mph N/A   Clear
5:15 PM 80.6 °F 19.4 °F 10% 30.13 in 10.0 mi SW 27.6 mph 36.8 mph N/A   Clear
5:35 PM 80.6 °F 19.4 °F 10% 30.13 in 10.0 mi SW 24.2 mph 35.7 mph N/A   Clear
5:55 PM 78.8 °F 19.4 °F 11% 30.12 in 10.0 mi WSW 26.5 mph 35.7 mph N/A   Clear
6:15 PM 78.8 °F 19.4 °F 11% 30.12 in 10.0 mi WSW 23.0 mph 34.5 mph N/A   Clear
6:35 PM 78.8 °F 19.4 °F 11% 30.12 in 10.0 mi SW 24.2 mph - N/A   Clear
6:55 PM 77.0 °F 17.6 °F 11% 30.12 in 10.0 mi SW 18.4 mph 24.2 mph N/A   Clear
7:15 PM 75.2 °F 17.6 °F 11% 30.12 in 10.0 mi SW 15.0 mph 20.7 mph N/A   Clear
7:35 PM 75.2 °F 15.8 °F 11% 30.12 in 10.0 mi West 13.8 mph 21.9 mph N/A   Clear
7:55 PM 71.6 °F 15.8 °F 12% 30.13 in 10.0 mi WSW 9.2 mph - N/A   Clear
8:15 PM 68.0 °F 15.8 °F 13% 30.14 in 10.0 mi WSW 5.8 mph - N/A   Clear
8:35 PM 69.8 °F 15.8 °F 13% 30.14 in 10.0 mi SW 5.8 mph - N/A   Clear
8:55 PM 66.2 °F 15.8 °F 14% 30.15 in 10.0 mi WSW 6.9 mph - N/A   Clear
9:15 PM 64.4 °F 14.0 °F 14% 30.16 in 10.0 mi SW 9.2 mph - N/A   Clear
9:35 PM 64.4 °F 15.8 °F 15% 30.16 in 10.0 mi WSW 6.9 mph - N/A   Clear
9:55 PM 62.6 °F 15.8 °F 16% 30.17 in 10.0 mi West 9.2 mph - N/A   Clear
10:15 PM 62.6 °F 15.8 °F 16% 30.17 in 10.0 mi SSE 4.6 mph - N/A   Clear
10:35 PM 62.6 °F 19.4 °F 19% 30.19 in 10.0 mi ESE 10.4 mph - N/A   Clear
10:55 PM 62.6 °F 24.8 °F 24% 30.19 in 10.0 mi SE 10.4 mph - N/A   Clear
11:15 PM 64.4 °F 33.8 °F 32% 30.20 in 10.0 mi SE 10.4 mph - N/A   Partly Cloudy
11:35 PM 64.4 °F 37.4 °F 37% 30.19 in 10.0 mi ESE 12.7 mph - N/A   Clear
11:55 PM 64.4 °F 37.4 °F 37% 30.19 in 10.0 mi SE 10.4 mph - N/A   Clear